When you browse on this site, cookies collect data to enhance your experience and personalize the content and advertising you see.
Visit our Privacy Policy to learn more. By continuing to use the site, you agree to this use of cookies and data.
  • In Latvia
  • List of Countries
  • For 7 days
  • Water Temperature
  • Weather Map
  • Weather Widgets
  • user-avatar
    Login

    Hourly Weather Kapan

    Today, 5 June, Friday

    Time Temperature Precipitation Wind Pressure Humidity
    00:00 +19°C° 0 mm 1 mps 683 mmHg 66%
    01:00 +18°C° 0 mm 2 mps 683 mmHg 63%
    02:00 +18°C° 0 mm 2 mps 683 mmHg 60%
    03:00 +18°C° 0 mm 2 mps 683 mmHg 56%
    04:00 +20°C° 0 mm 1 mps 684 mmHg 58%
    05:00 +20°C° 0 mm 1 mps 685 mmHg 59%
    06:00 +21°C° 0 mm 1 mps 685 mmHg 60%
    07:00 +22°C° 0 mm 1 mps 685 mmHg 57%
    08:00 +24°C° 0 mm 1 mps 686 mmHg 55%
    09:00 +25°C° 0 mm 2 mps 686 mmHg 52%
    10:00 +26°C° 0.1 mm 2 mps 686 mmHg 49%
    11:00 +27°C° 0.1 mm 2 mps 686 mmHg 46%
    12:00 +28°C° 0.1 mm 3 mps 686 mmHg 42%
    13:00 +28°C° 0.1 mm 3 mps 685 mmHg 42%
    14:00 +29°C° 0.1 mm 3 mps 685 mmHg 42%
    15:00 +29°C° 0.1 mm 4 mps 685 mmHg 41%
    16:00 +28°C° 0.2 mm 3 mps 685 mmHg 46%
    17:00 +27°C° 0.2 mm 3 mps 685 mmHg 51%
    18:00 +26°C° 0.2 mm 3 mps 685 mmHg 55%
    19:00 +24°C° 0.1 mm 2 mps 685 mmHg 60%
    20:00 +21°C° 0.1 mm 2 mps 685 mmHg 65%
    21:00 +20°C° 0.1 mm 1 mps 685 mmHg 70%
    22:00 +20°C° 0.7 mm 1 mps 686 mmHg 73%
    23:00 +19°C° 0.7 mm 1 mps 686 mmHg 77%

    Tomorrow, 6 June, Saturday

    Time Temperature Precipitation Wind Pressure Humidity
    00:00 +19°C° 0.7 mm 1 mps 686 mmHg 80%
    01:00 +18°C° 0.3 mm 1 mps 686 mmHg 82%
    02:00 +18°C° 0.3 mm 1 mps 686 mmHg 83%
    03:00 +16°C° 0.3 mm 1 mps 686 mmHg 84%
    04:00 +18°C° 0.1 mm 1 mps 686 mmHg 83%
    05:00 +19°C° 0.1 mm 1 mps 687 mmHg 82%
    06:00 +19°C° 0.1 mm 1 mps 687 mmHg 80%
    07:00 +20°C° 0.3 mm 1 mps 687 mmHg 77%
    08:00 +20°C° 0.3 mm 2 mps 687 mmHg 73%
    09:00 +21°C° 0.3 mm 2 mps 688 mmHg 69%
    10:00 +23°C° 0.6 mm 2 mps 687 mmHg 67%
    11:00 +23°C° 0.6 mm 2 mps 687 mmHg 65%
    12:00 +22°C° 0.6 mm 3 mps 687 mmHg 64%
    13:00 +22°C° 0.2 mm 3 mps 687 mmHg 62%
    14:00 +22°C° 0.2 mm 3 mps 686 mmHg 60%
    15:00 +24°C° 0.2 mm 3 mps 686 mmHg 58%
    16:00 +22°C° 0.2 mm 3 mps 686 mmHg 61%
    17:00 +21°C° 0.2 mm 2 mps 686 mmHg 65%
    18:00 +21°C° 0.2 mm 2 mps 686 mmHg 68%
    19:00 +20°C° 0 mm 2 mps 687 mmHg 71%
    20:00 +20°C° 0 mm 1 mps 687 mmHg 73%
    21:00 +19°C° 0 mm 1 mps 687 mmHg 76%
    22:00 +18°C° 0 mm 1 mps 687 mmHg 77%
    23:00 +16°C° 0 mm 1 mps 687 mmHg 78%

    Day after tomorrow, 7 June, Sunday

    Time Temperature Precipitation Wind Pressure Humidity
    00:00 +16°C° 0 mm 1 mps 687 mmHg 79%
    01:00 +16°C° 0 mm 1 mps 687 mmHg 79%
    02:00 +15°C° 0 mm 1 mps 687 mmHg 79%
    03:00 +15°C° 0 mm 2 mps 687 mmHg 79%
    04:00 +16°C° 0 mm 1 mps 687 mmHg 77%
    05:00 +18°C° 0 mm 1 mps 687 mmHg 75%
    06:00 +19°C° 0 mm 1 mps 687 mmHg 72%
    07:00 +20°C° 0 mm 1 mps 688 mmHg 68%
    08:00 +21°C° 0 mm 2 mps 688 mmHg 63%
    09:00 +23°C° 0 mm 2 mps 688 mmHg 58%
    10:00 +24°C° 0.1 mm 2 mps 688 mmHg 55%
    11:00 +25°C° 0.1 mm 3 mps 688 mmHg 52%
    12:00 +25°C° 0.1 mm 3 mps 688 mmHg 49%
    13:00 +26°C° 0.1 mm 3 mps 687 mmHg 47%
    14:00 +26°C° 0.1 mm 3 mps 687 mmHg 46%
    15:00 +26°C° 0.1 mm 3 mps 687 mmHg 45%
    16:00 +26°C° 0 mm 3 mps 687 mmHg 48%
    17:00 +25°C° 0 mm 3 mps 687 mmHg 51%
    18:00 +24°C° 0 mm 3 mps 686 mmHg 54%
    19:00 +21°C° 0 mm 2 mps 686 mmHg 57%
    20:00 +20°C° 0 mm 2 mps 686 mmHg 60%
    21:00 +18°C° 0 mm 2 mps 686 mmHg 64%
    22:00 +18°C° 0 mm 2 mps 686 mmHg 64%
    23:00 +17°C° 0 mm 2 mps 686 mmHg 64%

    8 June, Monday

    Time Temperature Precipitation Wind Pressure Humidity
    00:00 +17°C° 0 mm 2 mps 686 mmHg 65%
    01:00 +17°C° 0 mm 2 mps 686 mmHg 65%
    02:00 +16°C° 0 mm 2 mps 685 mmHg 65%
    03:00 +16°C° 0 mm 2 mps 685 mmHg 64%
    04:00 +17°C° 0 mm 2 mps 685 mmHg 63%
    05:00 +19°C° 0 mm 1 mps 686 mmHg 62%
    06:00 +20°C° 0 mm 1 mps 686 mmHg 61%
    07:00 +22°C° 0 mm 1 mps 686 mmHg 55%
    08:00 +23°C° 0 mm 2 mps 686 mmHg 49%
    09:00 +25°C° 0 mm 2 mps 687 mmHg 43%
    10:00 +26°C° 0 mm 2 mps 686 mmHg 41%
    11:00 +27°C° 0 mm 2 mps 686 mmHg 38%
    12:00 +28°C° 0 mm 2 mps 686 mmHg 35%
    13:00 +28°C° 0 mm 2 mps 686 mmHg 35%
    14:00 +28°C° 0 mm 3 mps 685 mmHg 35%
    15:00 +29°C° 0 mm 3 mps 685 mmHg 34%
    16:00 +28°C° 0 mm 3 mps 685 mmHg 38%
    17:00 +27°C° 0 mm 2 mps 685 mmHg 42%
    18:00 +26°C° 0 mm 2 mps 684 mmHg 46%
    19:00 +24°C° 0 mm 2 mps 684 mmHg 48%
    20:00 +21°C° 0 mm 2 mps 685 mmHg 49%
    21:00 +19°C° 0 mm 2 mps 685 mmHg 51%
    22:00 +19°C° 0 mm 2 mps 684 mmHg 51%
    23:00 +18°C° 0 mm 2 mps 684 mmHg 52%

    9 June, Tuesday

    Time Temperature Precipitation Wind Pressure Humidity
    00:00 +18°C° 0 mm 2 mps 684 mmHg 52%
    01:00 +18°C° 0 mm 2 mps 684 mmHg 52%
    02:00 +17°C° 0 mm 2 mps 684 mmHg 52%
    03:00 +17°C° 0 mm 2 mps 684 mmHg 52%
    04:00 +18°C° 0 mm 2 mps 684 mmHg 53%
    05:00 +19°C° 0 mm 2 mps 685 mmHg 53%
    06:00 +21°C° 0 mm 1 mps 685 mmHg 54%
    07:00 +21°C° 0 mm 2 mps 685 mmHg 49%
    08:00 +24°C° 0 mm 2 mps 685 mmHg 44%
    09:00 +26°C° 0 mm 2 mps 686 mmHg 39%
    10:00 +27°C° 0 mm 2 mps 686 mmHg 37%
    11:00 +28°C° 0 mm 2 mps 686 mmHg 34%
    12:00 +29°C° 0 mm 3 mps 686 mmHg 32%
    13:00 +29°C° 0 mm 3 mps 685 mmHg 32%
    14:00 +29°C° 0 mm 3 mps 685 mmHg 32%
    15:00 +29°C° 0 mm 3 mps 685 mmHg 32%
    16:00 +28°C° 0 mm 3 mps 684 mmHg 37%
    17:00 +27°C° 0 mm 3 mps 684 mmHg 42%
    18:00 +26°C° 0 mm 3 mps 684 mmHg 46%
    19:00 +24°C° 0 mm 2 mps 684 mmHg 50%
    20:00 +21°C° 0 mm 2 mps 684 mmHg 53%
    21:00 +20°C° 0 mm 1 mps 684 mmHg 57%
    22:00 +19°C° 0 mm 2 mps 684 mmHg 57%
    23:00 +19°C° 0 mm 2 mps 684 mmHg 57%

    10 June, Wednesday

    Time Temperature Precipitation Wind Pressure Humidity
    00:00 +18°C° 0 mm 2 mps 684 mmHg 57%
    01:00 +18°C° 0 mm 2 mps 684 mmHg 56%
    02:00 +18°C° 0 mm 2 mps 684 mmHg 54%
    03:00 +19°C° 0 mm 1 mps 684 mmHg 53%
    04:00 +19°C° 0 mm 1 mps 684 mmHg 53%
    05:00 +20°C° 0 mm 1 mps 685 mmHg 54%
    06:00 +21°C° 0 mm 1 mps 685 mmHg 54%
    07:00 +23°C° 0 mm 1 mps 685 mmHg 50%
    08:00 +24°C° 0 mm 1 mps 685 mmHg 46%
    09:00 +26°C° 0 mm 2 mps 686 mmHg 42%
    10:00 +27°C° 0.1 mm 2 mps 686 mmHg 41%
    11:00 +28°C° 0.1 mm 2 mps 686 mmHg 41%
    12:00 +29°C° 0.1 mm 3 mps 686 mmHg 40%
    13:00 +29°C° 0.3 mm 3 mps 685 mmHg 41%
    14:00 +29°C° 0.3 mm 3 mps 685 mmHg 42%
    15:00 +29°C° 0.3 mm 3 mps 685 mmHg 43%
    16:00 +28°C° 0.2 mm 3 mps 685 mmHg 47%
    17:00 +27°C° 0.2 mm 3 mps 685 mmHg 50%
    18:00 +26°C° 0.2 mm 2 mps 686 mmHg 54%
    19:00 +25°C° 0.1 mm 2 mps 686 mmHg 57%
    20:00 +23°C° 0.1 mm 2 mps 686 mmHg 59%
    21:00 +22°C° 0.1 mm 1 mps 686 mmHg 61%
    22:00 +21°C° 0 mm 1 mps 685 mmHg 61%
    23:00 +21°C° 0 mm 1 mps 685 mmHg 61%
    Show more